Oskaloosa, IA

5:59 AM CDT on June 28, 2017 (GMT -0500)
Oskaloosa Municipal

Weather History for KOOA - January, 2014

Change the Weather History Date:

Tuesday, January 21, 2014

  Actual Average (KOTM) Record (KOTM)
Temperature  
Mean Temperature 4 °F -  
Max Temperature 10 °F 32 °F 63 °F (1957)
Min Temperature -2 °F 17 °F -21 °F (1970)
Degree Days  
Heating Degree Days 61    
Moisture  
Dew Point -4 °F    
Average Humidity 66    
Maximum Humidity 81    
Minimum Humidity 60    
Precipitation  
Precipitation 0.00 in - - ()
Sea Level Pressure  
Sea Level Pressure 30.31 in    
Wind  
Wind Speed 15 mph (NNW)    
Max Wind Speed 29 mph    
Max Gust Speed 32 mph    
Visibility 10 miles    
Events Snow    
Averages and records for this station are not official NWS values.
T = Trace of Precipitation, MM = Missing Value Source: NWS Daily Summary

Daily Weather History Graph

Daily Weather History Graph

Search for Another Location

Airport or City:

Trip Planner

Search our weather history database for the weather conditions in past years. The results will help you decide how hot, cold, wet, or windy it might be!

Date:

Astronomy

Jan. 21, 2014 Rise Set
Actual Time 7:30 AM CST 5:12 PM CST
Civil Twilight 7:00 AM CST 5:42 PM CST
Nautical Twilight 6:26 AM CST 6:16 PM CST
Astronomical Twilight 5:53 AM CST 6:49 PM CST
Moon 10:50 PM CST (1/21) 9:56 AM CST (1/21)
Length of Visible Light 10h 42m
Length of Day
9h 42m
Waning Gibbous, 74% of the Moon is Illuminated
Jan 21
Waning Gibbous
Jan 23
Last Quarter
Jan 30
New
Feb 6
First Quarter
Feb 14
Full

Hourly Weather History & Observations

Time (CST) Temp. Windchill Dew Point Humidity Pressure Visibility Wind Dir Wind Speed Gust Speed Precip Events Conditions
12:15 AM 10.8 °F -10.9 °F 5.9 °F 81% 30.25 in 1.2 mi North 28.8 mph 32.2 mph N/A Snow Light Snow
12:35 AM 10.4 °F -11.4 °F 5.5 °F 81% 30.26 in 2.0 mi North 28.8 mph 32.2 mph N/A Snow Light Snow
12:55 AM 9.5 °F -10.7 °F 4.5 °F 80% 30.27 in 2.5 mi North 23.0 mph 31.1 mph N/A Snow Light Snow
1:15 AM 7.9 °F -13.7 °F 2.1 °F 77% 30.29 in 7.0 mi North 25.3 mph - N/A   Scattered Clouds
1:35 AM 7.2 °F -12.9 °F 1.4 °F 77% 30.30 in 7.0 mi North 20.7 mph 31.1 mph N/A   Clear
1:55 AM 5.9 °F -15.9 °F -1.3 °F 72% 30.31 in 7.0 mi North 24.2 mph 31.1 mph N/A   Scattered Clouds
2:15 AM 5.4 °F -14.8 °F -2.4 °F 70% 30.33 in 10.0 mi North 19.6 mph 28.8 mph N/A   Scattered Clouds
2:35 AM 4.1 °F -16.4 °F -3.5 °F 71% 30.35 in 10.0 mi North 19.6 mph 25.3 mph N/A   Clear
2:55 AM 3.2 °F -17.1 °F -4.9 °F 69% 30.36 in 10.0 mi North 18.4 mph 27.6 mph N/A   Clear
3:15 AM 2.8 °F -17.5 °F -5.6 °F 68% 30.37 in 10.0 mi North 18.4 mph 21.9 mph N/A   Clear
3:35 AM 2.1 °F -19.5 °F -6.5 °F 67% 30.38 in 10.0 mi North 20.7 mph 25.3 mph N/A   Clear
3:55 AM 1.4 °F -19.4 °F -6.9 °F 68% 30.39 in 10.0 mi North 18.4 mph - N/A   Clear
4:15 AM 1.0 °F -19.3 °F -7.8 °F 66% 30.39 in 10.0 mi NNW 17.3 mph 21.9 mph N/A   Clear
4:35 AM 0.5 °F -19.4 °F -8.5 °F 66% 30.40 in 10.0 mi NNW 16.1 mph - N/A   Clear
4:55 AM 0.1 °F -19.8 °F -8.9 °F 66% 30.40 in 10.0 mi NNW 16.1 mph 21.9 mph N/A   Clear
5:15 AM -0.4 °F -21.2 °F -9.4 °F 66% 30.42 in 10.0 mi North 17.3 mph - N/A   Clear
5:35 AM -0.6 °F -20.8 °F -10.3 °F 64% 30.42 in 10.0 mi North 16.1 mph - N/A   Clear
5:55 AM -0.9 °F -22.4 °F -10.3 °F 65% 30.42 in 10.0 mi North 18.4 mph 23.0 mph N/A   Clear
6:15 AM -1.3 °F -21.7 °F -10.8 °F 64% 30.43 in 10.0 mi North 16.1 mph - N/A   Clear
6:35 AM -1.7 °F -20.8 °F -11.2 °F 64% 30.42 in 10.0 mi North 13.8 mph - N/A   Clear
6:55 AM -2.0 °F -19.6 °F -11.0 °F 66% 30.43 in 10.0 mi North 11.5 mph - N/A   Clear
7:15 AM -2.2 °F -22.9 °F -11.2 °F 66% 30.42 in 10.0 mi North 16.1 mph - N/A   Clear
7:35 AM -2.7 °F -17.5 °F -11.2 °F 67% 30.42 in 10.0 mi NNW 8.1 mph - N/A   Clear
7:55 AM -2.6 °F -19.4 °F -11.6 °F 65% 30.42 in 10.0 mi NNW 10.4 mph - N/A   Clear
8:15 AM -2.2 °F -18.0 °F -12.1 °F 63% 30.43 in 10.0 mi NNW 9.2 mph - N/A   Clear
8:35 AM -1.7 °F -19.2 °F -11.9 °F 62% 30.43 in 10.0 mi North 11.5 mph - N/A   Clear
8:55 AM -1.3 °F -17.8 °F -11.9 °F 61% 30.44 in 10.0 mi NNW 10.4 mph - N/A   Clear
9:15 AM -0.6 °F -14.9 °F -11.2 °F 61% 30.44 in 10.0 mi NNW 8.1 mph - N/A   Clear
9:35 AM -0.0 °F -14.2 °F -10.8 °F 60% 30.44 in 10.0 mi North 8.1 mph - N/A   Clear
9:55 AM 0.5 °F -13.6 °F -10.3 °F 60% 30.45 in 10.0 mi NW 8.1 mph - N/A   Clear
10:15 AM 1.6 °F -13.3 °F -8.7 °F 62% 30.44 in 10.0 mi NW 9.2 mph - N/A   Clear
10:35 AM 1.6 °F -9.7 °F -8.9 °F 62% 30.44 in 10.0 mi NW 5.8 mph - N/A   Clear
10:55 AM 2.3 °F -10.2 °F -7.8 °F 63% 30.44 in 10.0 mi NW 6.9 mph - N/A   Clear
11:15 AM 3.6 °F -10.9 °F -6.5 °F 63% 30.43 in 10.0 mi NNW 9.2 mph - N/A   Clear
11:35 AM 4.1 °F -9.2 °F -6.0 °F 63% 30.42 in 10.0 mi WNW 8.1 mph - N/A   Clear
11:55 AM 4.8 °F -8.3 °F -5.6 °F 62% 30.40 in 10.0 mi WNW 8.1 mph - N/A   Clear
12:15 PM 5.4 °F -7.6 °F -4.9 °F 63% 30.38 in 10.0 mi WNW 8.1 mph - N/A   Clear
12:35 PM 6.3 °F -5.4 °F -3.8 °F 63% 30.36 in 10.0 mi West 6.9 mph - N/A   Clear
12:55 PM 6.1 °F - -3.5 °F 65% 30.34 in 10.0 mi Calm Calm - N/A   Clear
1:15 PM 6.4 °F - -3.1 °F 65% 30.34 in 10.0 mi Calm Calm - N/A   Scattered Clouds
1:35 PM 6.6 °F -0.3 °F -3.6 °F 63% 30.32 in 10.0 mi WNW 3.5 mph - N/A   Mostly Cloudy
1:55 PM 6.4 °F - -3.3 °F 64% 30.31 in 10.0 mi Calm Calm - N/A   Mostly Cloudy
2:15 PM 6.3 °F - -3.6 °F 64% 30.29 in 10.0 mi Calm Calm - N/A   Overcast
2:35 PM 6.6 °F - -3.3 °F 64% 30.28 in 10.0 mi Calm Calm - N/A   Overcast
2:55 PM 6.6 °F - -4.2 °F 61% 30.28 in 10.0 mi Calm Calm - N/A   Overcast
3:15 PM 6.8 °F - -4.0 °F 61% 30.28 in 10.0 mi Calm Calm - N/A   Overcast
3:35 PM 6.8 °F - -4.0 °F 61% 30.27 in 10.0 mi Calm Calm - N/A   Overcast
3:55 PM 7.3 °F - -4.0 °F 60% 30.27 in 10.0 mi Calm Calm - N/A   Mostly Cloudy
4:15 PM 7.7 °F - -3.5 °F 60% 30.27 in 10.0 mi Calm Calm - N/A   Mostly Cloudy
4:35 PM 7.7 °F - -2.7 °F 62% 30.25 in 10.0 mi Calm Calm - N/A   Overcast
4:55 PM 8.1 °F - -2.6 °F 62% 30.25 in 10.0 mi Calm Calm - N/A   Overcast
5:15 PM 8.1 °F - -2.7 °F 61% 30.24 in 10.0 mi Calm Calm - N/A   Overcast
5:35 PM 8.2 °F -1.8 °F -2.7 °F 61% 30.22 in 10.0 mi SSE 5.8 mph - N/A   Overcast
5:55 PM 8.6 °F -2.6 °F -1.8 °F 63% 30.21 in 10.0 mi SE 6.9 mph - N/A   Overcast
6:15 PM 8.8 °F -4.4 °F -1.5 °F 63% 30.20 in 10.0 mi SSE 9.2 mph - N/A   Overcast
6:35 PM 9.0 °F -4.2 °F -0.4 °F 66% 30.19 in 10.0 mi SE 9.2 mph - N/A   Overcast
6:55 PM 9.1 °F -5.6 °F -0.6 °F 65% 30.19 in 10.0 mi SE 11.5 mph - N/A   Overcast
7:15 PM 9.3 °F -3.8 °F -0.6 °F 64% 30.19 in 10.0 mi South 9.2 mph - N/A   Overcast
7:35 PM 9.1 °F -3.0 °F -2.0 °F 61% 30.20 in 10.0 mi SSE 8.1 mph - N/A   Overcast
7:55 PM 9.3 °F -2.8 °F -1.3 °F 62% 30.19 in 10.0 mi South 8.1 mph - N/A   Overcast
8:15 PM 9.3 °F -0.5 °F -1.1 °F 63% 30.20 in 10.0 mi SSW 5.8 mph - N/A   Overcast
8:35 PM 9.5 °F -2.6 °F -0.4 °F 64% 30.20 in 10.0 mi SSW 8.1 mph - N/A   Overcast
8:55 PM 9.5 °F -1.5 °F 0.1 °F 66% 30.18 in 10.0 mi SSW 6.9 mph - N/A   Overcast
9:15 PM 9.5 °F -2.6 °F -0.0 °F 65% 30.18 in 10.0 mi SSW 8.1 mph - N/A   Overcast
9:35 PM 9.3 °F -3.8 °F 0.3 °F 67% 30.17 in 10.0 mi South 9.2 mph - N/A   Overcast
9:55 PM 9.1 °F -1.9 °F 0.7 °F 69% 30.16 in 10.0 mi South 6.9 mph - N/A   Overcast
10:15 PM 8.6 °F -1.3 °F 0.7 °F 70% 30.15 in 10.0 mi South 5.8 mph - N/A   Overcast
10:35 PM 7.9 °F -2.2 °F 0.5 °F 72% 30.14 in 10.0 mi SSE 5.8 mph - N/A   Mostly Cloudy
10:55 PM 7.5 °F -3.9 °F 1.2 °F 75% 30.13 in 10.0 mi SSE 6.9 mph - N/A   Scattered Clouds
11:15 PM 9.1 °F -4.0 °F 1.4 °F 71% 30.12 in 10.0 mi South 9.2 mph - N/A   Overcast
11:35 PM 9.5 °F -3.5 °F 1.9 °F 71% 30.11 in 10.0 mi SSE 9.2 mph - N/A   Overcast
11:55 PM 9.5 °F -2.6 °F 2.3 °F 73% 30.10 in 10.0 mi SSE 8.1 mph - N/A   Overcast